Regional Weather Roundup
Issued by NWS

Home | Current Version | Previous Version | Graphics & Text | Print | Product List | Glossary On
Versions: 1 2 3 4 5 6 7 8 9 10 11 12 13 14 15 16 17 18 19 20 21 22 23 24 25 26 27 28 29 30 31 32 33 34 35 36 37 38 39 40 41 42 43 44 45 46 47 48 49 50
000
ASUS44 KMEG 191000
RWRTN
TENNESSEE HOURLY STATE WEATHER ROUNDUP
NATIONAL WEATHER SERVICE MEMPHIS TN
400 AM CST THU JAN 19 2017

TNZ002-004-019-021-049-052-054-088>092-191100-
WEST TENNESSEE

CITY           SKY/WX    TMP DP  RH WIND       PRES   REMARKS
MEMPHIS INTL   CLOUDY    56  54  93 VRB6      29.91F
NWS MEMPHIS      N/A     54 N/A N/A MISG        N/A
JACKSON        CLOUDY    51  50  96 E3        29.97F
DYERSBURG      CLOUDY    46  45  93 E9        29.95F
UNION CITY     CLOUDY   N/A N/A N/A CALM      29.97F
PARIS          CLOUDY    45  45 100 CALM      30.00S
$$

TNZ008-025-027-028-033-062-065-066-191100-
NORTH MIDDLE TENNESSEE

CITY           SKY/WX    TMP DP  RH WIND       PRES   REMARKS
NASHVILLE      CLOUDY    48  43  82 CALM      30.03S
CLARKSVILLE    CLOUDY    47  41  80 E7        30.03S
SMYRNA         LGT RAIN  47  45  93 NE3       30.05R
CROSSVILLE     CLOUDY    43  41  93 SE3       30.06F
$$

TNZ061-075-076-078-094-096-097-191100-
SOUTH MIDDLE TENNESSEE

CITY           SKY/WX    TMP DP  RH WIND       PRES   REMARKS
TULLAHOMA      MOCLDY    48  46  93 E5        30.02F
WINCHESTER     CLOUDY    52  50  93 E6        30.03S
COLUMBIA       CLOUDY   N/A N/A N/A E3        29.99F
SHELBYVILLE    CLOUDY    52  48  87 NE3       30.03S
$$

TNZ017-018-042-046-047-191100-
NORTHEAST TENNESSEE

CITY           SKY/WX    TMP DP  RH WIND       PRES   REMARKS
TRI CITIES     CLOUDY    38  37  97 CALM      30.09F
$$

TNZ012-013-036-069-073-074-191100-
CENTRAL EAST TENNESSEE

CITY           SKY/WX    TMP DP  RH WIND       PRES   REMARKS
KNOXVILLE      CLOUDY    44  39  82 N3        30.06F
OAK RIDGE      PTCLDY    43  39  86 CALM      30.10F
GATLINBURG     CLEAR     37  37 100 CALM      30.06F
$$

TNZ083-085-099-191100-
SOUTHEAST TENNESSEE

CITY           SKY/WX    TMP DP  RH WIND       PRES   REMARKS
CHATTANOOGA    CLOUDY    50  43  77 N7        30.06F
$$

SKY/WX REPORTED AS FAIR MEANS FEW OR NO CLOUDS BELOW
12 THOUSAND FEET.




USA.gov is the U.S. government's official web portal to all federal, state and local government web resources and services.